Location: Mohawk View
(42.7837°N, 73.7885°W)
Time: 08:09:08
(UTC+00:00)

DELTA 2 R/B (1) - Pass Details

Date: 17 June 2021
Orbit: 789 x 804 km, 39.6° (Epoch: 27 July)

Event Time Altitude Azimuth Distance (km) Brightness Sun altitude
Exits shadow 06:48:24 36° 207° (SSW) 1,226 4.0 -19.0°
Maximum altitude 06:50:02 47° 163° (SSE) 1,037 3.8 -18.8°
Drops below altitude 10° 06:55:19 10° 91° (E) 2,351 6.4 -18.4°
Sets 06:57:53 0° 86° (E) 3,284 7.3 -18.1°
